SCP
0 0 0 0 0 0 0 0 0 0 0 0 0 0 0 0 0 0 0 0 0 0 0 0 0 0 0 0 0 0 0 0 0 0 0 0 0 0 0 0 0 0 0
0 0 0 0 0 0 0 0 0 0 0 0 0 0 0 0 0 0 0 0 0 0 0 0 0 0 0 0 0 0 0 0 0 0 0 0 0 0 0 0 0 0 0
0 0 0 0 0 0 0 0 0 0 0 0 0 0 0 0 0 0 0 0 0 0 0 0 0 0 0 0 0 0 0 0 0 0 0 0 0 0 0 0 0 0 0
0 0 0 0 0 0 0 0 0 0 0 0 0 0 0 0 0 0 0 0 0 0 0 0 0 0 0 0 0 0 0 0 0 0 0 0 0 0 0 0 0 0 0
0 0 0 0 0 0 0 0 0 0 0 0 0 0 0 0 0 0 0 0 0 0 0 0 0 0 0 0 0 0 0 0 0 0 0 0 0 0 0 0 0 0 0
0 0 0 0 0 0 0 0 0 0 0 0 0 0 0 0 0 0 0 0 0 0 0 0 0 0 0 0 0 0 0 0 0 0 0 0 0 0 0 0 0 0 0
0 0 0 0 0 0 0 0 0 0 0 0 0 0 0 0 0 0 0 0 0 0 0 0 0 0 0 0 0 0 0 0 0 0 0 0 0 0 0 0 0 0 0
0 0 0 0 0 0 0 0 0 0 0 0 0 0 0 0 0 0 0 0 0 0 0 0 0 0 0 0 0 0 0 0 0 0 0 0 0 0 0 0 0 0 0
0 0 0 0 0 0 0 0 0 0 0 0 0 0 0 0 0 0 0 0 0 0 0 0 0 0 0 0 0 0 0 0 0 0 0 0 0 0 0 0 0 0 0
0 0 0 0 0 0 0 0 0 0 0 0 0 0 0 0 0 0 0 0 0 0 0 0 0 0 0 0 0 0 0 0 0 0 0 0 0 0 0 0 0 0 0
0 0 0 0 0 0 0 0 0 0 0 0 0 0 0 0 0 0 0 0 0 0 0 0 0 0 0 0 0 0 0 0 0 0 0 0 0 0 0 0 0 0 0
0 0 0 0 0 0 0 0 0 0 0 0 0 0 0 0 0 0 0 0 0 0 0 0 0 0 0 0 0 0 0 0 0 0 0 0 0 0 0 0 0 0 0
0 0 0 0 0 0 0 0 0 0 0 0 0 0 0 0 0 0 0 0 0 0 0 0 0 0 0 0 0 0 0 0 0 0 0 0 0 0 0 0 0 0 0
0 0 0 0 0 0 0 0 0 0 0 0 0 0 0 0 0 0 0 0 0 0 0 0 0 0 0 0 0 0 0 0 0 0 0 0 0 0 0 0 0 0 0
0 0 0 0 0 0 0 0 0 0 0 0 0 0 0 0 0 0 0 0 0 0 0 0 0 0 0 0 0 0 0 0 0 0 0 0 0 0 0 0 0 0 0
0 0 0 0 0 0 0 0 0 0 0 0 0 0 0 0 0 0 0 0 0 0 0 0 0 0 0 0 0 0 0 0 0 0 0 0 0 0 0 0 0 0 0
0 0 0 0 0 0 0 0 0 0 0 0 0 0 0 0 0 0 0 0 0 0 0 0 0 0 0 0 0 0 0 0 0 0 0 0 0 0 0 0 0 0 0
0 0 0 0 0 0 0 0 0 0 0 0 0 0 0 0 0 0 0 0 0 0 0 0 0 0 0 0 0 0 0 0 0 0 0 0 0 0 0 0 0 0 0
0 0 0 0 0 0 0 0 0 0 0 0 0 0 0 0 0 0 0 0 0 0 0 0 0 0 0 0 0 0 0 0 0 0 0 0 0 0 0 0 0 0 0
0 0 0 0 0 0 0 0 0 0 0 0 0 0 0 0 0 0 0 0 0 0 0 0 0 0 0 0 0 0 0 0 0 0 0 0 0 0 0 0 0 0 0
0 0 0 0 0 0 0 0 0 0 0 0 0 0 0 0 0 0 0 0 0 0 0 0 0 0 0 0 0 0 0 0 0 0 0 0 0 0 0 0 0 0 0
0 0 0 0 0 0 0 0 0 0 0 0 0 0 0 0 0 0 0 0 0 0 0 0 0 0 0 0 0 0 0 0 0 0 0 0 0 0 0 0 0 0 0
0 0 0 0 0 0 0 0 0 0 0 0 0 0 0 0 0 0 0 0 0 0 0 0 0 0 0 0 0 0 0 0 0 0 0 0 0 0 0 0 0 0 0
0 0 0 0 0 0 0 0 0 0 0 0 0 0 0 0 0 0 0 0 0 0 0 0 0 0 0 0 0 0 0 0 0 0 0 0 0 0 0 0 0 0 0
0 0 0 0 0 0 0 0 0 0 0 0 0 0 0 0 0 0 0 0 0 0 0 0 0 0 0 0 0 0 0 0 0 0 0 0 0 0 0 0 0 0 0
0 0 0 0 0 0 0 0 0 0 0 0 0 0 0 0 0 0 0 0 0 0 0 0 0 0 0 0 0 0 0 0 0 0 0 0 0 0 0 0 0 0 0
Wind_Speed
1 1 0 0 1 1 1 1 1 1 1 1 1 2 1 1 1 1 1 3 4 4 5 6 7 7 7 7 7 7 9 9 10 10 10 9 9 9 8 8 7 7 6
2 1 1 1 1 1 1 1 1 1 1 1 1 1 1 1 1 1 1 2 3 4 5 5 6 7 6 6 6 6 7 9 10 10 10 9 9 9 8 8 8 7 6
2 1 1 1 0 1 1 1 1 1 1 1 1 1 1 1 1 1 1 1 1 3 4 5 5 5 6 6 6 6 7 7 9 10 10 9 9 9 8 8 8 8 7
2 2 1 1 0 1 1 1 1 1 1 1 0 0 1 1 2 2 1 1 1 1 2 4 5 5 6 5 6 6 7 7 8 9 9 9 9 9 8 8 8 7 7
2 2 1 1 1 1 1 1 1 1 1 1 1 0 0 1 1 2 2 2 2 1 1 2 4 5 5 5 5 6 6 6 7 9 9 9 10 10 9 8 8 7 7
2 2 1 1 1 1 1 1 1 1 1 1 0 1 1 1 1 2 2 2 2 2 2 2 2 2 4 5 5 6 7 8 8 9 10 10 9 9 9 9 8 8 8
2 2 1 1 1 1 1 2 1 1 0 1 1 1 1 1 1 1 2 2 2 2 2 2 2 2 2 4 5 7 7 8 9 9 9 10 10 9 9 9 9 9 8
2 2 2 1 1 1 1 1 1 1 0 1 1 1 1 2 2 1 1 2 2 2 2 3 3 3 2 2 3 6 6 7 8 9 9 10 10 11 11 10 10 9 9
1 2 2 2 1 1 1 1 1 2 1 0 1 2 1 1 2 2 1 1 1 1 2 2 3 3 3 2 3 4 5 5 7 8 9 9 10 11 11 10 10 10 9
1 1 2 2 2 2 2 2 1 1 2 1 0 0 1 1 1 1 2 1 1 2 2 2 2 3 3 3 3 4 4 5 6 7 8 8 9 10 10 10 10 9 9
0 1 1 1 1 1 1 1 2 2 2 2 2 1 1 0 1 1 1 2 2 1 1 2 2 2 2 3 3 4 4 4 5 6 6 7 8 9 9 10 10 10 10
0 0 1 1 1 1 1 2 2 2 2 2 2 2 2 1 1 1 1 1 2 2 2 1 1 2 2 2 3 3 4 4 4 5 5 6 6 7 8 9 9 10 10
1 1 1 1 1 1 1 1 1 2 2 2 2 2 2 2 2 2 1 1 1 2 2 1 1 1 1 2 2 3 3 4 4 4 4 5 5 6 7 8 8 8 8
2 1 1 1 1 1 1 1 1 1 1 2 2 2 1 2 2 2 2 2 0 1 1 2 1 1 1 1 2 2 2 3 3 4 4 4 4 4 5 6 7 7 7
1 1 1 1 0 0 1 1 1 1 1 1 1 1 1 1 1 1 2 2 2 1 2 2 1 2 2 1 1 1 1 2 3 3 3 4 4 4 4 5 5 6 7
1 1 1 1 1 1 1 1 1 1 1 1 1 1 1 1 1 1 1 1 2 2 2 1 1 2 2 2 1 1 1 1 2 2 3 3 4 4 5 5 6 6 6
2 2 1 1 1 1 1 1 1 1 2 1 1 1 1 1 1 1 1 1 1 2 2 2 1 2 1 2 2 1 1 1 1 2 2 3 3 4 4 5 6 7 7
2 2 2 1 1 1 1 1 1 1 2 2 1 1 1 1 1 0 1 1 1 1 2 2 1 1 1 1 2 2 1 1 1 1 2 3 4 4 5 5 5 6 6
2 2 2 2 1 1 1 1 1 1 1 2 2 2 1 1 1 1 1 1 1 1 1 2 1 1 1 1 1 1 1 1 1 1 2 3 4 5 6 6 6 6 6
3 3 2 2 2 1 2 2 2 1 1 1 1 1 2 2 2 2 1 2 1 1 1 1 1 1 1 1 0 1 1 2 2 2 2 2 3 4 6 6 7 7 7
3 3 2 2 2 2 2 2 2 2 2 1 1 1 2 2 2 2 1 2 2 1 1 1 1 1 1 1 1 1 1 2 2 1 2 2 2 2 3 4 6 7 7
3 2 3 2 2 2 2 3 3 2 2 2 1 1 1 1 1 2 2 2 3 3 3 2 2 2 3 2 1 1 1 1 2 1 1 2 2 2 3 3 5 6 7
3 3 3 2 2 2 2 3 4 3 2 2 2 2 1 1 1 1 1 1 2 3 5 4 4 4 3 3 2 2 2 2 2 2 1 3 2 3 3 3 5 7 7
3 3 3 3 3 3 2 3 4 3 2 1 2 2 1 1 2 1 1 1 1 2 3 4 4 4 4 3 3 3 2 2 3 2 2 3 2 2 3 3 4 5 5
3 3 3 3 3 3 3 4 4 3 2 2 2 1 2 2 2 1 1 1 2 2 2 1 2 2 3 3 3 2 1 1 2 2 1 2 2 2 3 3 3 3 3
3 3 3 3 4 4 4 6 6 3 2 2 1 1 2 2 2 2 2 2 2 3 1 1 1 1 1 2 3 3 3 2 2 2 1 2 2 1 2 2 2 2 2
Wind_Direction
148 124 129 116 84 84 99 100 99 88 99 128 147 152 170 190 190 193 244 230 226 219 211 203 200 197 191 195 197 197 197 193 188 180 177 174 174 174 174 174 171 169 169
144 138 128 115 102 103 109 104 119 120 119 126 149 162 177 194 203 210 230 262 249 225 212 208 209 214 205 201 203 202 193 192 189 180 178 178 178 179 180 180 180 180 178
146 145 127 114 119 123 120 106 102 101 121 125 153 208 208 204 207 221 221 248 271 247 226 211 206 215 216 208 205 204 195 192 187 185 186 185 184 184 185 185 186 187 186
150 145 147 149 151 117 117 129 128 121 125 138 166 259 241 234 237 233 229 231 258 274 247 222 216 220 223 215 209 208 199 193 191 190 191 193 192 190 190 190 189 191 191
150 148 160 157 131 121 123 174 140 161 169 181 206 235 248 243 248 237 229 227 229 240 258 246 234 229 228 222 217 214 208 202 203 200 200 200 199 195 193 193 194 196 197
144 146 153 141 126 123 128 135 136 131 144 180 153 5 318 256 237 239 237 229 230 231 234 246 249 250 240 233 228 225 222 215 212 207 205 203 201 199 197 200 202 204 205
148 148 145 126 130 152 179 162 137 126 112 98 79 11 341 301 255 246 238 229 237 235 227 227 227 234 248 245 239 231 229 226 219 212 209 206 204 204 204 207 209 211 212
165 168 160 147 152 159 128 128 136 136 112 99 124 99 345 343 329 288 242 232 240 232 231 227 220 223 233 235 241 234 233 230 222 215 214 211 207 207 207 210 214 216 216
156 162 157 159 175 175 180 178 157 150 163 142 118 146 153 247 311 323 294 273 259 239 244 232 223 226 224 223 238 245 242 232 227 223 220 215 212 208 209 212 217 219 218
141 149 149 158 176 172 174 199 176 167 160 181 184 193 174 168 178 321 327 321 295 254 251 241 234 229 225 222 227 235 241 235 231 230 223 218 214 209 211 212 216 219 222
85 138 146 145 158 165 180 180 178 177 182 184 182 171 163 145 161 175 298 325 335 309 275 251 243 237 231 227 228 232 227 221 222 227 225 223 219 215 216 216 218 223 228
319 166 137 140 172 186 194 197 191 186 191 190 187 178 170 171 183 177 220 286 310 317 320 295 262 252 239 229 233 226 214 211 219 224 226 225 223 220 218 220 222 225 229
221 218 163 165 192 212 210 189 176 192 189 186 191 196 196 191 166 169 180 232 285 310 326 325 290 277 262 235 233 218 210 208 214 220 221 218 222 222 220 220 221 222 224
210 196 169 175 187 189 189 169 166 198 176 183 189 185 192 198 186 187 178 174 247 320 329 312 319 309 295 264 254 223 231 213 209 208 203 203 210 218 222 222 222 222 219
185 165 158 156 176 172 171 159 167 196 168 183 186 182 192 216 206 207 189 178 174 231 280 293 309 336 329 297 287 237 234 222 212 214 209 211 212 214 225 228 226 223 220
162 149 139 170 183 178 162 150 165 184 163 191 185 168 198 223 198 201 187 180 175 189 242 272 284 316 320 328 336 268 240 225 233 238 234 230 227 226 228 231 229 228 226
167 168 181 190 204 198 176 157 185 180 177 192 185 167 205 192 176 182 157 164 178 182 222 272 283 304 312 334 347 334 310 270 267 251 247 238 232 231 233 235 233 231 229
178 172 170 179 213 206 190 183 200 195 193 202 202 174 215 171 171 163 160 182 205 204 206 251 284 306 309 311 327 318 319 298 279 268 250 249 244 237 235 234 234 234 233
180 173 171 190 214 219 201 195 192 192 191 196 194 188 203 170 189 203 194 208 219 212 202 212 257 283 298 315 344 333 330 325 303 289 251 252 251 246 242 235 236 238 237
182 185 185 195 209 214 205 192 178 174 171 180 184 186 195 196 205 211 214 222 214 200 186 202 242 268 277 311 320 321 325 325 311 309 303 282 268 258 251 240 238 238 237
190 181 174 189 202 199 216 199 182 175 176 196 210 200 203 200 200 207 213 210 202 209 207 213 237 255 262 271 271 268 274 301 294 287 298 293 279 271 263 253 244 240 237
186 175 183 189 200 219 224 204 180 171 177 196 224 235 225 213 219 231 232 216 200 207 218 222 228 238 248 242 253 255 259 281 287 292 282 286 266 266 267 261 256 249 244
190 194 203 196 209 232 218 199 187 173 183 204 215 222 230 269 272 265 264 260 238 232 217 214 222 232 232 228 227 251 252 256 262 271 255 272 267 273 279 276 262 256 251
196 204 212 210 210 231 218 198 186 170 174 204 231 225 218 272 269 251 255 283 275 265 239 227 230 239 240 231 218 230 243 263 277 271 234 259 273 280 299 298 283 260 257
203 206 206 206 211 235 218 192 173 166 181 221 237 235 220 247 265 219 204 267 292 295 277 240 232 247 245 223 195 189 214 246 287 287 235 252 274 290 289 286 295 284 275
205 202 209 212 211 223 208 187 174 172 184 217 249 252 238 245 252 203 203 220 257 274 291 328 336 335 257 215 195 206 212 224 257 274 235 236 258 281 290 283 301 309 297